Tracking 18673 objects as of 27-June-2017
HD Live streaming from Space Station
objects crossing your sky now

STEP 2

Track STEP 2 now!
10-day predictions
STEP 2 is classified as:


NORAD ID: 23105
Int'l Code: 1994-029A
Perigee: 574.7 km
Apogee: 727.2 km
Inclination: 81.9 °
Period: 97.6 minutes
Semi major axis: 7021 km
RCS: 2.0652 m2 (large)
Launch date: May 19, 1994
Source: United States (US)
Launch site: AIR FORCE WESTERN TEST RANGE (AFWTR)
Your satellite tracking list
Your tracking list is empty





NASA's NSSDC Master Catalog

Two Line Element Set (TLE):
1 23105U 94029A   17177.71867356 +.00000249 +00000-0 +30028-4 0  9993
2 23105 081.9495 217.7056 0108557 039.1847 321.7156 14.75426487235390
Source of the keplerian elements: AFSPC